[[{"header":{"parameterUnit":"m.s-1","parameterCategory":1,"la1":30.2991,"la2":30.254,"lo1":-89.0895,"lo2":-89.0444,"dy":0.0017,"dx":0.0017,"nx":28,"ny":28,"refTime":"2023-09-06T09:00:00:Z","depth":0,"parameterNumber":2,"parameterNumberName":"U-component_of_WINDS"},"data":[0,0,0,0,0,0,0,0,0,0,0,0,0,0,0,0,0,0,0,0,0,0,0,0,0,0,0,0,0,0,0,0,0,0,0,0,0,0,0,0,0,0,0,0,0,0,0,0,0,0,0,0,0,0,0,0,0,0,-1.6725,-1.6727,0,-1.693,-1.6933,-1.6935,-1.6963,-1.6961,-1.6959,-1.6957,-1.7172,-1.718,-1.7187,0,0,0,0,0,0,0,0,0,0,0,0,0,-1.6358,-1.6365,-1.6725,-1.6727,-1.673,-1.693,-1.6933,-1.6936,-1.6963,-1.6961,-1.6959,-1.6957,-1.717,-1.7179,-1.7188,0,0,0,0,0,0,0,0,0,0,0,0,0,-1.6536,-1.6367,-1.6724,-1.6768,-1.6774,-1.6929,-1.6933,-1.6936,-1.6964,-1.6961,-1.6958,-1.6955,-1.7167,-1.7178,-1.7189,-1.7317,0,0,-1.7224,-1.7229,0,0,0,0,0,0,0,0,-1.6526,-1.655,-1.6759,-1.6765,-1.6772,-1.6918,-1.6883,-1.7064,-1.6965,-1.6892,-1.6957,-1.6954,-1.709,-1.7108,-1.7153,-1.7327,-1.7337,-1.7225,-1.7232,-1.7236,-1.724,0,0,0,0,0,0,0,-1.6514,-1.6541,-1.6806,-1.6762,-1.677,-1.6778,-1.68,-1.6917,-1.7005,-1.6898,-1.69,-1.6924,-1.7094,-1.7142,-1.7158,-1.734,-1.7224,-1.7234,-1.7241,-1.7246,-1.7628,-1.7631,0,0,0,0,0,0,-1.6493,-1.653,-1.68,-1.6812,-1.6639,-1.6787,-1.6811,-1.6874,-1.7004,-1.7021,-1.6926,-1.6925,-1.7124,-1.7145,-1.7166,-1.7323,-1.7236,-1.7247,-1.7253,-1.7624,-1.7628,-1.7632,0,0,0,0,0,0,-1.6485,-1.6517,-1.6791,-1.6672,-1.6708,-1.6796,-1.6866,-1.688,-1.6928,-1.7025,-1.7042,-1.696,-1.7123,-1.715,-1.7279,-1.7331,-1.7252,-1.7262,-1.762,-1.7626,-1.763,-1.764,0,0,0,0,0,0,-1.6474,-1.6514,-1.6563,-1.6673,-1.6714,-1.69,-1.687,-1.6886,-1.6947,-1.6947,-1.7061,-1.7077,-1.7123,-1.7262,-1.729,-1.7345,-1.7271,-1.7616,-1.7623,-1.7629,-1.7635,-1.7644,-1.7652,0,0,0,0,0,-1.6461,-1.6559,-1.6565,-1.6598,-1.6777,-1.6903,-1.6927,-1.6976,-1.6951,-1.7002,-1.7064,-1.7073,-1.7321,-1.7275,-1.7307,-1.7366,-1.7613,-1.7621,-1.7628,-1.7631,-1.7642,-1.7652,0,0,0,0,0,0,-1.6455,-1.6574,-1.6583,-1.6718,-1.68,-1.6907,-1.6973,-1.6986,-1.7078,-1.7074,-1.7132,-1.7158,-1.7283,-1.7338,-1.7284,-1.7496,-1.7465,-1.7479,-1.7456,-1.7468,-1.7476,-1.746,-1.7281,0,0,0,0,0,-1.6469,-1.656,-1.666,-1.677,-1.681,-1.6884,-1.6941,-1.6971,-1.7059,-1.7094,-1.7166,-1.7251,-1.7348,-1.7411,-1.7506,-1.7643,-1.7667,-1.7699,-1.7708,-1.7714,-1.7726,-1.7801,-1.7816,-1.7657,-1.7657,-1.7657,0,0,-1.6499,-1.6576,-1.663,-1.677,-1.6837,-1.6931,-1.6913,-1.7014,-1.7084,-1.711,-1.7235,-1.729,-1.739,-1.7522,-1.7585,-1.7572,-1.7775,-1.7724,-1.7729,-1.7737,-1.7811,-1.7826,-1.7839,-1.7662,-1.7661,-1.766,0,0,-1.6603,-1.667,-1.6768,-1.6835,-1.6935,-1.6983,-1.7007,-1.7112,-1.7149,-1.7275,-1.7296,-1.738,-1.7546,-1.7616,-1.7673,-1.7799,-1.7811,-1.7829,-1.7874,-1.7946,-1.7959,-1.797,-1.8015,-1.803,-1.784,-1.784,-1.784,0,-1.6629,-1.677,-1.6818,-1.6917,-1.6977,-1.7003,-1.7103,-1.7165,-1.7292,-1.7334,-1.7317,-1.7524,-1.7593,-1.7742,-1.7772,-1.7818,-1.7846,-1.7816,-1.7953,-1.7965,-1.7976,-1.8019,-1.8036,-1.7841,-1.7841,-1.7841,-1.7841,0,-1.6796,-1.6893,-1.6961,-1.708,-1.7148,-1.7248,-1.7311,-1.7374,-1.7398,-1.7448,-1.7575,-1.7658,-1.7769,-1.7806,-1.7832,-1.7958,-1.7947,-1.7941,-1.7911,-1.7992,-1.8033,-1.805,-1.7843,-1.7843,-1.7842,-1.7842,0,0,-1.6904,-1.7046,-1.707,-1.7123,-1.7235,-1.7311,-1.7411,-1.7517,-1.757,-1.7656,-1.7741,-1.788,-1.7874,-1.7938,-1.7971,-1.8035,-1.8128,-1.8021,-1.8024,-1.8037,-1.8271,-1.8275,-1.8293,-1.8136,-1.814,-1.8142,-1.8263,0,-1.702,-1.7197,-1.7241,-1.7393,-1.7482,-1.7506,-1.7593,-1.7671,-1.772,-1.7804,-1.7858,-1.7954,-1.794,-1.7979,-1.8043,-1.8103,-1.8176,-1.8095,-1.8216,-1.822,-1.819,-1.8315,-1.832,-1.8429,-1.8279,-1.8282,-1.8284,0,-1.718,-1.7266,-1.7425,-1.7523,-1.7562,-1.7639,-1.7739,-1.7819,-1.7907,-1.7938,-1.8008,-1.8035,-1.8139,-1.8103,-1.8248,-1.8192,-1.8244,-1.8281,-1.8286,-1.8299,-1.8257,-1.8331,-1.8466,-1.8482,-1.831,-1.8308,-1.8306,0,-1.7241,-1.7398,-1.7513,-1.7558,-1.7675,-1.7728,-1.7779,-1.7865,-1.7925,-1.8013,-1.8052,-1.8151,-1.8206,-1.8282,-1.8335,-1.8303,-1.8475,-1.8443,-1.8503,-1.8502,-1.8539,-1.8536,-1.8683,-1.8573,-1.8572,-1.8572,-1.8572,0,-1.7366,-1.7462,-1.7541,-1.7612,-1.772,-1.7771,-1.7877,-1.7929,-1.8004,-1.8086,-1.8113,-1.8189,-1.8254,-1.8338,-1.838,-1.8493,-1.8518,-1.8545,-1.8555,-1.8543,-1.8539,-1.8578,-1.8572,-1.8576,-1.8575,-1.8575,-1.8574,0,-1.7453,-1.751,-1.7637,-1.7736,-1.7763,-1.7838,-1.7923,-1.7993,-1.8041,-1.8144,-1.8171,-1.8247,-1.8348,-1.8407,-1.8536,-1.8563,-1.8688,-1.8695,-1.8658,-1.8662,-1.8719,-1.8712,-1.8896,-1.8922,-1.8794,-1.8795,-1.8796,0,-1.753,-1.7604,-1.771,-1.7765,-1.7816,-1.7906,-1.7967,-1.8019,-1.8081,-1.8186,-1.8243,-1.8344,-1.8429,-1.8589,-1.8656,-1.8754,-1.8763,-1.8821,-1.8778,-1.8763,-1.8763,-1.8758,-1.8765,-1.8828,-1.8829,-1.883,-1.8831,0,-1.7658,-1.7682,-1.7768,-1.7863,-1.7934,-1.8012,-1.809,-1.8134,-1.8199,-1.8267,-1.8369,-1.8435,-1.8564,-1.8664,-1.8767,-1.8821,-1.8837,-1.8843,-1.8862,-1.8851,-1.8825,-1.8839,-1.8677,-1.8839,-1.8838,-1.8838,-1.8837,-1.8837,-1.7743,-1.7809,-1.7893,-1.7987,-1.805,-1.8121,-1.819,-1.8246,-1.8332,-1.8439,-1.8465,-1.8572,-1.8657,-1.8796,-1.8852,-1.8936,-1.8927,-1.8955,-1.8962,-1.8968,-1.8969,-1.8811,-1.8955,-1.8955,-1.8955,-1.8955,-1.8955,0,-1.7872,-1.7927,-1.8012,-1.8119,-1.8192,-1.8198,-1.8284,-1.8345,-1.8439,-1.8515,-1.8597,-1.8713,-1.881,-1.8884,-1.8983,-1.9037,-1.9047,-1.9061,-1.9058,-1.907,-1.8972,-1.8945,-1.9052,-1.9051,-1.9051,-1.9051,-1.9051,-1.9051,-1.7949,-1.806,-1.8093,-1.8236,-1.829,-1.8394,-1.8442,-1.8507,-1.8568,-1.8696,-1.8776,-1.8823,-1.8898,-1.9003,-1.9092,-1.9111,-1.9146,-1.9159,-1.918,-1.9087,-1.9077,-1.9067,-1.9042,-1.9167,-1.9167,-1.927,-1.9271,-1.9272]},{"header":{"parameterUnit":"m.s-1","parameterCategory":1,"la1":30.2991,"la2":30.254,"lo1":-89.0895,"lo2":-89.0444,"dy":0.0017,"dx":0.0017,"nx":28,"ny":28,"refTime":"2023-09-06T09:00:00:Z","depth":0,"parameterNumber":3,"parameterNumberName":"V-component_of_WINDS"},"data":[0,0,0,0,0,0,0,0,0,0,0,0,0,0,0,0,0,0,0,0,0,0,0,0,0,0,0,0,0,0,0,0,0,0,0,0,0,0,0,0,0,0,0,0,0,0,0,0,0,0,0,0,0,0,0,0,0,0,-1.4442,-1.4439,0,-1.4133,-1.4129,-1.4125,-1.4059,-1.4061,-1.4063,-1.4066,-1.3733,-1.3722,-1.3711,0,0,0,0,0,0,0,0,0,0,0,0,0,-1.4957,-1.4948,-1.4442,-1.4438,-1.4434,-1.4133,-1.4129,-1.4125,-1.4058,-1.4061,-1.4064,-1.4067,-1.3736,-1.3723,-1.371,0,0,0,0,0,0,0,0,0,0,0,0,0,-1.4699,-1.4945,-1.4443,-1.4365,-1.4355,-1.4134,-1.4129,-1.4123,-1.4058,-1.4061,-1.4065,-1.4068,-1.3741,-1.3725,-1.3708,-1.3537,0,0,-1.3658,-1.3651,0,0,0,0,0,0,0,0,-1.4713,-1.468,-1.4381,-1.437,-1.4359,-1.4138,-1.4188,-1.3926,-1.4057,-1.417,-1.4066,-1.407,-1.3864,-1.3837,-1.3771,-1.3521,-1.3507,-1.3656,-1.3646,-1.3639,-1.3635,0,0,0,0,0,0,0,-1.4731,-1.4692,-1.4319,-1.4376,-1.4363,-1.434,-1.4307,-1.4138,-1.4001,-1.4161,-1.4155,-1.412,-1.3858,-1.3787,-1.3763,-1.3502,-1.3657,-1.3642,-1.3632,-1.3625,-1.3089,-1.3085,0,0,0,0,0,0,-1.4765,-1.4708,-1.4329,-1.431,-1.4549,-1.4328,-1.4291,-1.4205,-1.4003,-1.3975,-1.4118,-1.4118,-1.3814,-1.3782,-1.3751,-1.3532,-1.3639,-1.3624,-1.3614,-1.3093,-1.3088,-1.3083,0,0,0,0,0,0,-1.4777,-1.4732,-1.4341,-1.4507,-1.4456,-1.4316,-1.4219,-1.4197,-1.4126,-1.397,-1.3944,-1.4072,-1.3815,-1.3774,-1.359,-1.352,-1.3616,-1.3601,-1.3098,-1.3091,-1.3085,-1.3097,0,0,0,0,0,0,-1.4792,-1.4737,-1.4675,-1.4507,-1.4447,-1.4192,-1.4215,-1.4189,-1.41,-1.4098,-1.392,-1.3894,-1.3815,-1.3615,-1.3574,-1.3499,-1.3588,-1.3104,-1.3095,-1.3087,-1.3102,-1.3092,-1.3083,0,0,0,0,0,-1.481,-1.4688,-1.4672,-1.4627,-1.4368,-1.4188,-1.4153,-1.407,-1.4095,-1.4028,-1.3927,-1.3899,-1.3535,-1.3597,-1.355,-1.3469,-1.3108,-1.3098,-1.3088,-1.3107,-1.3094,-1.3083,0,0,0,0,0,0,-1.4847,-1.4665,-1.4645,-1.4467,-1.4344,-1.4177,-1.4091,-1.406,-1.3923,-1.3927,-1.3824,-1.3784,-1.3605,-1.3518,-1.3591,-1.3289,-1.3322,-1.3302,-1.3352,-1.3338,-1.3329,-1.3352,-1.3575,0,0,0,0,0,-1.4836,-1.4711,-1.4556,-1.4412,-1.4353,-1.4233,-1.4151,-1.4097,-1.3964,-1.391,-1.3795,-1.3662,-1.3517,-1.3423,-1.3282,-1.309,-1.3046,-1.3011,-1.3001,-1.2994,-1.2977,-1.2863,-1.2843,-1.3051,-1.3051,-1.3051,0,0,-1.4809,-1.4694,-1.462,-1.4417,-1.4316,-1.4182,-1.4189,-1.4048,-1.3945,-1.3886,-1.3706,-1.3617,-1.3461,-1.3272,-1.3182,-1.3194,-1.291,-1.2981,-1.2977,-1.2963,-1.2851,-1.2831,-1.2814,-1.3044,-1.3045,-1.3046,0,0,-1.469,-1.4594,-1.4461,-1.436,-1.4208,-1.4128,-1.4096,-1.3933,-1.3873,-1.3692,-1.3643,-1.3516,-1.3271,-1.316,-1.3071,-1.2907,-1.2874,-1.2863,-1.2811,-1.2701,-1.2684,-1.2669,-1.2605,-1.2584,-1.2847,-1.2847,-1.2847,0,-1.4674,-1.4477,-1.4396,-1.4256,-1.4165,-1.411,-1.3971,-1.3875,-1.3682,-1.3617,-1.3635,-1.3322,-1.3213,-1.2994,-1.2954,-1.2886,-1.284,-1.2882,-1.2695,-1.2678,-1.2663,-1.26,-1.2577,-1.2847,-1.2847,-1.2847,-1.2847,0,-1.4461,-1.4324,-1.4234,-1.4054,-1.3952,-1.3814,-1.3706,-1.3612,-1.3566,-1.3483,-1.3294,-1.3162,-1.299,-1.2934,-1.2887,-1.2706,-1.2718,-1.2717,-1.2746,-1.2644,-1.2583,-1.2559,-1.2846,-1.2846,-1.2846,-1.2846,0,0,-1.4357,-1.4133,-1.4101,-1.4016,-1.3843,-1.3731,-1.3587,-1.3424,-1.3342,-1.321,-1.3082,-1.2874,-1.287,-1.2769,-1.2708,-1.2613,-1.2483,-1.2621,-1.2616,-1.2596,-1.2269,-1.2269,-1.2243,-1.2462,-1.2457,-1.2454,-1.228,0,-1.4214,-1.3962,-1.3883,-1.3668,-1.3536,-1.348,-1.3353,-1.3229,-1.3146,-1.3017,-1.2923,-1.2775,-1.2785,-1.2723,-1.2626,-1.252,-1.2416,-1.2532,-1.2335,-1.2329,-1.2373,-1.2212,-1.2212,-1.2055,-1.2257,-1.2253,-1.225,0,-1.4014,-1.3882,-1.3656,-1.3495,-1.3436,-1.3325,-1.3165,-1.3045,-1.29,-1.2846,-1.2733,-1.2679,-1.2518,-1.2561,-1.2334,-1.2415,-1.2329,-1.2265,-1.2256,-1.2232,-1.2281,-1.2178,-1.2004,-1.1979,-1.2213,-1.2216,-1.2218,0,-1.3955,-1.372,-1.3553,-1.3483,-1.3292,-1.3213,-1.3129,-1.2989,-1.2894,-1.2752,-1.2688,-1.2529,-1.244,-1.2315,-1.2217,-1.2258,-1.1997,-1.2032,-1.1942,-1.1944,-1.1887,-1.1891,-1.1692,-1.1839,-1.1839,-1.184,-1.184,0,-1.3802,-1.3664,-1.3524,-1.3421,-1.3262,-1.317,-1.3013,-1.2925,-1.2799,-1.2673,-1.2613,-1.2494,-1.2374,-1.2237,-1.2159,-1.198,-1.1941,-1.1888,-1.1868,-1.1891,-1.1897,-1.1831,-1.1838,-1.1833,-1.1835,-1.1836,-1.1837,0,-1.3709,-1.3611,-1.3423,-1.3258,-1.3213,-1.3103,-1.2958,-1.2852,-1.2767,-1.2607,-1.2563,-1.2427,-1.2262,-1.2153,-1.1942,-1.1889,-1.1693,-1.1677,-1.1743,-1.1732,-1.1647,-1.1655,-1.1394,-1.1353,-1.1532,-1.1531,-1.153,0,-1.3616,-1.3509,-1.3332,-1.3246,-1.3162,-1.3023,-1.2926,-1.2829,-1.2729,-1.2554,-1.2467,-1.23,-1.2161,-1.1899,-1.1777,-1.1614,-1.1591,-1.1511,-1.1565,-1.1591,-1.1583,-1.159,-1.1576,-1.1501,-1.15,-1.1499,-1.1498,0,-1.3459,-1.3415,-1.3281,-1.3127,-1.3014,-1.2888,-1.2761,-1.2691,-1.2571,-1.2461,-1.2294,-1.2187,-1.1971,-1.1803,-1.1628,-1.1534,-1.1492,-1.1482,-1.1451,-1.1472,-1.1513,-1.1484,-1.1715,-1.1488,-1.1489,-1.1489,-1.149,-1.149,-1.3359,-1.3259,-1.3119,-1.2969,-1.2864,-1.2746,-1.2637,-1.2539,-1.24,-1.222,-1.217,-1.1994,-1.1846,-1.1607,-1.151,-1.1367,-1.1374,-1.1332,-1.132,-1.131,-1.1307,-1.1539,-1.1335,-1.1335,-1.1335,-1.1335,-1.1335,0,-1.3195,-1.3102,-1.2966,-1.2791,-1.2671,-1.2649,-1.2506,-1.2405,-1.2253,-1.2121,-1.1986,-1.1791,-1.1627,-1.1492,-1.1321,-1.1232,-1.1208,-1.1189,-1.1193,-1.117,-1.1312,-1.1354,-1.1211,-1.1211,-1.1211,-1.1211,-1.1211,-1.1211,-1.3095,-1.2924,-1.2863,-1.2636,-1.2541,-1.2373,-1.2292,-1.218,-1.2074,-1.1861,-1.1725,-1.1641,-1.1504,-1.1323,-1.1169,-1.1132,-1.107,-1.1055,-1.1014,-1.1148,-1.1161,-1.1174,-1.1213,-1.1043,-1.1043,-1.0883,-1.0882,-1.0881]}]]